Weather History for Storm Lake, IA

Change the Weather History Date:

Monday, January 30, 2012

  Actual Average Record
Temperature  
Mean Temperature 6 °C -  
Max Temperature 13 °C -2 °C 12 °C (2012)
Min Temperature -1 °C -10 °C -23 °C (2004)
Degree Days  
Heating Degree Days 22    
Moisture  
Dew Point -4 °C    
Average Humidity 52    
Maximum Humidity 65    
Minimum Humidity 35    
Precipitation  
Precipitation 0.00 mm - - ()
Sea Level Pressure  
Sea Level Pressure 1006 hPa    
Wind  
Wind Speed 19 km/h (SW)    
Max Wind Speed 24 km/h    
Max Gust Speed -    
Visibility 16 kilometers    
Events      
Averages and records for this station are not official NWS values.
T = Trace of Precipitation, MM = Missing Value Source: NWS Daily Summary

Daily Weather History Graph

Daily Weather History Graph

Search for Another Location

Airport:

Trip Planner

Search our weather history database for the weather conditions in past years. The results will help you decide how hot, cold, wet, or windy it might be!

Date:

Astronomy

Jan. 30, 2012 Rise Set
Actual Time 7:37 AM CST 5:31 PM CST
Civil Twilight 7:07 AM CST 6:01 PM CST
Nautical Twilight 6:33 AM CST 6:35 PM CST
Astronomical Twilight 6:00 AM CST 7:08 PM CST
Moon 10:49 AM CST 12:27 AM CST
Length of Visible Light 10h 53m
Length of Day
9h 53m
Waxing Crescent, 46% of the Moon is Illuminated
Jan 30
Waxing Crescent
Jan 30
First Quarter
Feb 7
Full
Feb 14
Last Quarter
Feb 21
New

Hourly Weather History & Observations

Time (CST) Temp. Windchill Dew Point Humidity Pressure Visibility Wind Dir Wind Speed Gust Speed Precip Events Conditions
12:15 AM -0.6 °C -6.0 °C -6.5 °C 65% 1010.4 hPa 16.1 km South 20.4 km/h / 5.7 m/s - N/A   Scattered Clouds
12:35 AM -0.1 °C -5.7 °C -6.5 °C 62% 1010.0 hPa 16.1 km South 22.2 km/h / 6.2 m/s - N/A   Scattered Clouds
12:55 AM 0.0 °C -5.5 °C -6.6 °C 62% 1010.0 hPa 16.1 km SSW 22.2 km/h / 6.2 m/s - N/A   Scattered Clouds
1:15 AM 0.0 °C -5.5 °C -6.6 °C 62% 1009.4 hPa 16.1 km SSW 22.2 km/h / 6.2 m/s - N/A   Scattered Clouds
1:35 AM 0.0 °C -4.7 °C -6.5 °C 62% 1009.0 hPa 16.1 km SSW 16.7 km/h / 4.6 m/s - N/A   Clear
1:55 AM 0.2 °C -4.1 °C -6.5 °C 61% 1008.7 hPa 16.1 km SSW 14.8 km/h / 4.1 m/s - N/A   Clear
2:15 AM 0.1 °C -4.6 °C -6.5 °C 62% 1008.7 hPa 16.1 km SSW 16.7 km/h / 4.6 m/s - N/A   Clear
2:35 AM 0.6 °C -3.6 °C -6.6 °C 59% 1008.4 hPa 16.1 km SSW 14.8 km/h / 4.1 m/s - N/A   Clear
3:15 AM 1.7 °C -3.4 °C -6.5 °C 55% 1008.0 hPa 16.1 km SSW 22.2 km/h / 6.2 m/s - N/A   Scattered Clouds
3:35 AM 2.2 °C -3.0 °C -6.6 °C 53% 1007.3 hPa 16.1 km SW 24.1 km/h / 6.7 m/s - N/A   Scattered Clouds
3:55 AM 2.4 °C -2.7 °C -6.5 °C 52% 1007.3 hPa 16.1 km SW 24.1 km/h / 6.7 m/s - N/A   Clear
4:15 AM 2.5 °C -2.1 °C -6.4 °C 52% 1007.0 hPa 16.1 km SW 20.4 km/h / 5.7 m/s - N/A   Mostly Cloudy
4:55 AM 1.8 °C -2.7 °C -6.3 °C 55% 1006.7 hPa 16.1 km SW 18.5 km/h / 5.1 m/s - N/A   Clear
5:15 AM 2.1 °C -2.4 °C -6.0 °C 55% 1006.3 hPa 16.1 km SW 18.5 km/h / 5.1 m/s - N/A   Clear
5:35 AM 2.0 °C -2.2 °C -5.8 °C 57% 1006.3 hPa 16.1 km SW 16.7 km/h / 4.6 m/s - N/A   Clear
5:55 AM 1.9 °C -1.7 °C -5.8 °C 57% 1006.7 hPa 16.1 km SW 13.0 km/h / 3.6 m/s - N/A   Clear
6:15 AM 1.7 °C -2.6 °C -5.7 °C 58% 1006.7 hPa 16.1 km WSW 16.7 km/h / 4.6 m/s - N/A   Clear
6:35 AM 1.0 °C -4.3 °C -5.9 °C 60% 1006.3 hPa 16.1 km WSW 22.2 km/h / 6.2 m/s - N/A   Clear
6:55 AM 0.8 °C -4.3 °C -6.1 °C 60% 1006.3 hPa 16.1 km WSW 20.4 km/h / 5.7 m/s - N/A   Clear
7:35 AM 0.5 °C -4.6 °C -6.1 °C 62% 1006.7 hPa 16.1 km WSW 20.4 km/h / 5.7 m/s - N/A   Clear
7:55 AM 0.1 °C -5.1 °C -6.0 °C 64% 1006.7 hPa 16.1 km WSW 20.4 km/h / 5.7 m/s - N/A   Clear
8:15 AM 1.0 °C -3.7 °C -5.8 °C 61% 1006.7 hPa 16.1 km SW 18.5 km/h / 5.1 m/s - N/A   Clear
8:35 AM 2.0 °C -2.7 °C -5.5 °C 58% 1006.7 hPa 16.1 km SW 20.4 km/h / 5.7 m/s - N/A   Clear
8:55 AM 2.6 °C -2.2 °C -5.0 °C 58% 1006.7 hPa 16.1 km WSW 22.2 km/h / 6.2 m/s - N/A   Clear
9:15 AM 3.0 °C -1.7 °C -5.0 °C 56% 1006.7 hPa 16.1 km WSW 22.2 km/h / 6.2 m/s - N/A   Clear
9:35 AM 3.6 °C -0.5 °C -4.5 °C 56% 1007.0 hPa 16.1 km SW 18.5 km/h / 5.1 m/s - N/A   Clear
9:55 AM 4.3 °C -0.3 °C -4.1 °C 55% 1006.7 hPa 16.1 km SW 24.1 km/h / 6.7 m/s - N/A   Clear
10:15 AM 5.0 °C 1.0 °C -3.8 °C 53% 1006.7 hPa 16.1 km SW 20.4 km/h / 5.7 m/s - N/A   Clear
10:35 AM 5.9 °C 1.8 °C -4.3 °C 48% 1006.7 hPa 16.1 km WSW 24.1 km/h / 6.7 m/s - N/A   Clear
10:55 AM 6.4 °C 2.6 °C -3.8 °C 48% 1006.7 hPa 16.1 km WSW 22.2 km/h / 6.2 m/s - N/A   Clear
11:15 AM 7.2 °C 3.5 °C -3.5 °C 47% 1006.3 hPa 16.1 km WSW 24.1 km/h / 6.7 m/s - N/A   Clear
11:35 AM 7.8 °C 4.2 °C -3.4 °C 45% 1006.3 hPa 16.1 km WSW 24.1 km/h / 6.7 m/s - N/A   Clear
11:55 AM 8.3 °C - -3.1 °C 45% 1006.3 hPa 16.1 km WSW 22.2 km/h / 6.2 m/s - N/A   Clear
12:15 PM 9.0 °C - -3.2 °C 42% 1006.3 hPa 16.1 km WSW 20.4 km/h / 5.7 m/s - N/A   Clear
12:35 PM 10.0 °C - -2.5 °C 42% 1006.0 hPa 16.1 km WSW 22.2 km/h / 6.2 m/s - N/A   Clear
12:55 PM 10.7 °C - -2.5 °C 40% 1005.6 hPa 16.1 km West 16.7 km/h / 4.6 m/s - N/A   Clear
1:35 PM 11.6 °C - -2.3 °C 38% 1005.6 hPa 16.1 km WSW 18.5 km/h / 5.1 m/s - N/A   Clear
1:55 PM 12.2 °C - -2.5 °C 36% 1005.3 hPa 16.1 km WSW 20.4 km/h / 5.7 m/s - N/A   Clear
2:15 PM 12.5 °C - -2.4 °C 36% 1005.3 hPa 16.1 km WSW 18.5 km/h / 5.1 m/s - N/A   Clear
2:35 PM 12.7 °C - -2.5 °C 35% 1005.0 hPa 16.1 km WSW 20.4 km/h / 5.7 m/s - N/A   Clear
2:55 PM 13.1 °C - -1.8 °C 36% 1005.0 hPa 16.1 km SW 18.5 km/h / 5.1 m/s - N/A   Clear
3:15 PM 12.6 °C - -2.1 °C 36% 1005.3 hPa 16.1 km WSW 20.4 km/h / 5.7 m/s - N/A   Clear
3:35 PM 12.5 °C - -2.0 °C 37% 1005.3 hPa 16.1 km WSW 18.5 km/h / 5.1 m/s - N/A   Clear
3:55 PM 12.1 °C - -1.9 °C 38% 1005.6 hPa 16.1 km SW 16.7 km/h / 4.6 m/s - N/A   Clear
4:15 PM 11.7 °C - -1.3 °C 41% 1005.0 hPa 16.1 km SW 16.7 km/h / 4.6 m/s - N/A   Clear
4:35 PM 10.5 °C - -1.0 °C 45% 1004.6 hPa 16.1 km SW 16.7 km/h / 4.6 m/s - N/A   Clear
4:55 PM 8.7 °C - -1.3 °C 50% 1005.0 hPa 16.1 km SSW 16.7 km/h / 4.6 m/s - N/A   Clear
5:15 PM 6.5 °C 3.4 °C -1.8 °C 56% 1005.0 hPa 16.1 km SSW 16.7 km/h / 4.6 m/s - N/A   Clear
5:35 PM 7.0 °C 4.5 °C -2.6 °C 51% 1005.3 hPa 16.1 km SSW 13.0 km/h / 3.6 m/s - N/A   Clear
5:55 PM 6.6 °C 3.5 °C -3.3 °C 50% 1005.0 hPa 16.1 km SSW 16.7 km/h / 4.6 m/s - N/A   Clear
6:15 PM 5.6 °C 2.3 °C -3.5 °C 52% 1005.0 hPa 16.1 km South 16.7 km/h / 4.6 m/s - N/A   Clear
6:35 PM 5.1 °C 1.9 °C -3.2 °C 55% 1005.0 hPa 16.1 km South 14.8 km/h / 4.1 m/s - N/A   Clear
6:55 PM 5.2 °C 2.3 °C -3.5 °C 54% 1005.0 hPa 16.1 km South 13.0 km/h / 3.6 m/s - N/A   Clear
7:15 PM 4.1 °C 1.0 °C -3.7 °C 57% 1005.0 hPa 16.1 km South 13.0 km/h / 3.6 m/s - N/A   Clear
7:35 PM 4.5 °C 1.5 °C -3.8 °C 55% 1005.0 hPa 16.1 km South 13.0 km/h / 3.6 m/s - N/A   Clear
7:55 PM 4.6 °C 2.0 °C -4.0 °C 54% 1005.0 hPa 16.1 km SSW 11.1 km/h / 3.1 m/s - N/A   Clear
8:15 PM 3.8 °C 0.6 °C -3.6 °C 59% 1005.0 hPa 16.1 km South 13.0 km/h / 3.6 m/s - N/A   Clear
8:35 PM 3.2 °C -0.7 °C -3.5 °C 62% 1004.6 hPa 16.1 km South 16.7 km/h / 4.6 m/s - N/A   Clear
8:55 PM 5.2 °C 1.8 °C -3.5 °C 54% 1004.6 hPa 16.1 km SSW 16.7 km/h / 4.6 m/s - N/A   Clear
9:15 PM 5.2 °C 1.3 °C -3.0 °C 56% 1004.6 hPa 16.1 km SSW 20.4 km/h / 5.7 m/s - N/A   Clear
9:35 PM 6.5 °C 2.6 °C -3.0 °C 51% 1004.6 hPa 16.1 km SW 24.1 km/h / 6.7 m/s - N/A   Clear
9:55 PM 5.7 °C 2.2 °C -3.0 °C 54% 1004.3 hPa 16.1 km SSW 18.5 km/h / 5.1 m/s - N/A   Clear
10:15 PM 5.3 °C 1.0 °C -2.8 °C 56% 1004.3 hPa 16.1 km SSW 24.1 km/h / 6.7 m/s - N/A   Clear
10:35 PM 5.4 °C 1.1 °C -2.8 °C 56% 1004.3 hPa 16.1 km SW 24.1 km/h / 6.7 m/s - N/A   Clear
10:55 PM 5.9 °C 1.4 °C -2.8 °C 54% 1004.3 hPa 16.1 km SW 27.8 km/h / 7.7 m/s - N/A   Clear
11:15 PM 5.8 °C 1.2 °C -2.7 °C 55% 1004.3 hPa 16.1 km SW 29.6 km/h / 8.2 m/s - N/A   Clear
11:35 PM 5.7 °C 1.2 °C -2.6 °C 56% 1004.3 hPa 16.1 km SW 27.8 km/h / 7.7 m/s - N/A   Clear
11:55 PM 5.6 °C 1.1 °C -2.5 °C 56% 1004.3 hPa 16.1 km SW 27.8 km/h / 7.7 m/s - N/A   Clear